Location: Monrovia
(34.7865°N, 86.7139°W)
Time: 00:52:46
(UTC+00:00)

Sich 1 Rocket - Pass Details

Date: 14 July 2020
Orbit: 615 x 653 km, 82.5° (Epoch: 12 August)

Event Time Altitude Azimuth Distance (km) Brightness Sun altitude
Exits shadow 09:45:03 11° 202° (SSW) 1,975 5.6 -11.2°
Maximum altitude 09:49:18 52° 279° (W) 803 3.9 -10.5°
Drops below altitude 10° 09:53:44 10° 356° (N) 2,038 6.6 -9.8°
Sets 09:56:02 0° 1° (N) 2,945 7.6 -9.4°
